{"data":{"norad_id":31792,"intl_designator":"2007-029A","name":"COSMOS 2428","alt_names":[],"object_type":"PAYLOAD","status":"ACTIVE","operator":null,"country":"CIS","launch_date":"2007-06-29","launch_site_code":"TYMSC","launch_vehicle":null,"mission":null,"orbit_class":"UNKNOWN","rcs_meters":6.4839,"size_class":null,"mass_kg":null,"dimensions":null,"purposes":[],"wikipedia_slug":null,"has_3d_model":false,"image_url":null,"decayed_at":null,"tle_current":{"epoch":"2026-09-19T03:49:12.052128Z","epoch_age_seconds":134171,"freshness":"FRESH","line1":"1 31792U 07029A   26262.15916727 -.00000004  00000+0  23778-4 0  9991","line2":"2 31792  70.9440 157.1971 0011088 324.0849  35.9526 14.12977134991421","mean_motion":14.12977134,"eccentricity":0.0011088,"inclination_deg":70.944,"raan_deg":157.1971,"arg_perigee_deg":324.0849,"mean_anomaly_deg":35.9526,"bstar":2.3778e-5,"rev_number":99142,"period_min":101.91247723334,"perigee_km":841.188208877,"apogee_km":857.21555558223,"semimajor_km":7227.3388822296,"source":"CELESTRAK","updated_at":"2026-09-20T09:00:13.656035Z"}}}